Change the Weather History Date:

Tuesday, July 30, 2013

  Actual Average Record
Temperature  
Mean Temperature 77 °F 80 °F  
Max Temperature 83 °F 90 °F 104 °F (1947)
Min Temperature 71 °F 69 °F 51 °F (1971)
Degree Days  
Heating Degree Days 0 0  
Month to date heating degree days 0 0  
Since 1 June heating degree days 9 6  
Since 1 July heating degree days 0 0  
Cooling Degree Days 12 14  
Month to date cooling degree days 368 417  
Year to date cooling degree days 823 860  
Since 1 June cooling degree days 675 721  
Growing Degree Days 26 (Base 50)    
Moisture  
Dew Point 72 °F    
Average Humidity 84    
Maximum Humidity 94    
Minimum Humidity 74    
Precipitation  
Precipitation T in 0.11 in 1.13 in (1998)
Month to date precipitation 1.60 4.10  
Year to date precipitation 27.01 24.34  
Sea Level Pressure  
Sea Level Pressure 30.01 in    
Wind  
Wind Speed 4 mph (South)    
Max Wind Speed 7 mph    
Max Gust Speed 9 mph    
Visibility 9 miles    
Events Rain    
T = Trace of Precipitation, MM = Missing Value Source: NWS Daily Summary

Daily Weather History Graph

Daily Weather History Graph

Search for Another Location

Airport or City:

Trip Planner

Search our weather history database for the weather conditions in past years. The results will help you decide how hot, cold, wet, or windy it might be!

Date:

Astronomy

Jul. 30, 2013 Rise Set
Actual Time 6:12 AM CDT 8:25 PM CDT
Civil Twilight 5:42 AM CDT 8:54 PM CDT
Nautical Twilight 5:06 AM CDT 9:31 PM CDT
Astronomical Twilight 4:26 AM CDT 10:10 PM CDT
Moon 12:30 AM CDT (7/30) 2:46 PM CDT (7/30)
Length of Visible Light 15h 11m
Length of Day
14h 12m
Last Quarter, 41% of the Moon is Illuminated
Jul 30
Last Quarter
Aug 6
New
Aug 14
First Quarter
Aug 20
Full
Aug 28
Last Quarter

Hourly Weather History & Observations

Time (CDT) Temp. Heat Index Dew Point Humidity Pressure Visibility Wind Dir Wind Speed Gust Speed Precip Events Conditions
12:53 AM 71.1 °F - 68.0 °F 90% 30.02 in 10.0 mi SSE 6.9 mph - N/A   Scattered Clouds
1:53 AM 71.1 °F - 68.0 °F 90% 30.02 in 10.0 mi SSE 9.2 mph - N/A   Mostly Cloudy
2:30 AM 71.6 °F - 69.8 °F 94% 30.02 in 10.0 mi SSE 9.2 mph - N/A   Mostly Cloudy
2:49 AM 71.6 °F - 69.8 °F 94% 30.01 in 10.0 mi SE 8.1 mph - N/A   Scattered Clouds
2:53 AM 71.1 °F - 69.1 °F 93% 30.00 in 10.0 mi SSE 6.9 mph - N/A   Scattered Clouds
3:53 AM 71.1 °F - 69.1 °F 93% 30.00 in 10.0 mi SSE 8.1 mph - N/A   Overcast
4:53 AM 71.1 °F - 69.1 °F 93% 29.99 in 9.0 mi SE 3.5 mph - N/A   Overcast
5:09 AM 71.6 °F - 69.8 °F 94% 30.01 in 9.0 mi Calm Calm - N/A   Overcast
5:23 AM 71.6 °F - 69.8 °F 94% 30.01 in 8.0 mi SSE 3.5 mph - N/A   Overcast
5:53 AM 71.1 °F - 69.1 °F 93% 30.00 in 7.0 mi South 4.6 mph - N/A   Overcast
6:10 AM 71.6 °F - 69.8 °F 94% 30.01 in 10.0 mi SE 4.6 mph - N/A   Mostly Cloudy
6:53 AM 72.0 °F - 70.0 °F 93% 30.00 in 10.0 mi South 6.9 mph - N/A   Overcast
11:53 AM 77.0 °F - 72.0 °F 84% 30.01 in 10.0 mi WSW 4.6 mph - 0.00 in Rain Light Rain
1:28 PM 78.8 °F - 71.6 °F 78% 30.02 in 10.0 mi SW 5.8 mph - N/A Rain Light Rain
1:53 PM 78.1 °F - 73.0 °F 84% 30.00 in 10.0 mi SW 4.6 mph - N/A   Overcast
2:53 PM 79.0 °F - 73.0 °F 82% 29.99 in 10.0 mi SSW 5.8 mph - N/A   Overcast
3:38 PM 80.6 °F 85.4 °F 73.4 °F 79% 30.00 in 10.0 mi WSW 4.6 mph - 0.00 in   Overcast
3:53 PM 81.0 °F 86.2 °F 73.9 °F 79% 29.99 in 10.0 mi West 4.6 mph - 0.00 in   Overcast
4:53 PM 82.9 °F 89.4 °F 73.9 °F 74% 29.98 in 10.0 mi SSW 3.5 mph - N/A   Mostly Cloudy
5:53 PM 82.0 °F 87.4 °F 73.0 °F 74% 29.98 in 10.0 mi West 4.6 mph - N/A   Overcast
6:53 PM 82.0 °F 87.9 °F 73.9 °F 76% 29.97 in 10.0 mi Calm Calm - N/A   Mostly Cloudy
7:53 PM 80.1 °F 84.5 °F 73.9 °F 81% 29.98 in 10.0 mi NE 4.6 mph - N/A   Mostly Cloudy
8:44 PM 78.8 °F - 73.4 °F 83% 30.01 in 10.0 mi North 3.5 mph - N/A   Overcast
8:53 PM 77.0 °F - 73.9 °F 90% 29.99 in 10.0 mi North 3.5 mph - N/A   Mostly Cloudy
9:53 PM 75.0 °F - 73.0 °F 94% 30.01 in 8.0 mi Calm Calm - N/A   Scattered Clouds
10:03 PM 75.2 °F - 73.4 °F 94% 30.04 in 9.0 mi Calm Calm - N/A   Mostly Cloudy
10:13 PM 75.2 °F - 73.4 °F 94% 30.04 in 8.0 mi NW 3.5 mph - N/A   Overcast
10:53 PM 75.9 °F - 73.9 °F 94% 30.03 in 7.0 mi NNW 3.5 mph - N/A   Overcast
11:53 PM 75.9 °F - 73.0 °F 91% 30.03 in 8.0 mi North 5.8 mph - N/A   Overcast